DW1590 Weather Reports


Display with metric or nautical units.
time (UTC)temp
F
wind
direction
speed
MPH
gust
MPH
rain 1hr
in
rain 24hr
in
rain mn
in
humidity
%
barometer
mb
20260506134548 63 171 3.0 0.0 0.00 0.00 0.05 100 1009.2
20260506133044 63 207 4.0 0.0 0.00 0.00 0.02 100 1009.6
20260506131548 64 190 4.0 0.0 0.00 0.00 0.02 100 1009.1
20260506130051 64 206 4.0 0.0 0.00 0.00 0.01 100 1008.9
20260506124530 65 180 4.0 0.0 0.00 0.00 0.00 100 1008.7
20260506123026 65 192 4.0 0.0 0.00 0.00 0.00 100 1008.8
20260506121522 65 223 3.0 0.0 0.00 0.00 0.00 100 1009.3
20260506120020 65 203 6.0 0.0 0.00 0.00 0.00 9 1009.3
20260506114516 66 199 5.0 0.0 0.00 0.00 0.00 20 1009.1
20260506113013 66 165 5.0 0.0 0.00 0.00 0.00 24 1008.9
20260506111511 66 234 6.0 0.0 0.00 0.00 0.00 23 1008.6
20260506110009 66 231 6.0 0.0 0.00 0.00 0.00 24 1008.5
20260506104506 66 159 6.0 0.0 0.00 0.00 0.00 25 1008.4
20260506103003 66 156 6.0 0.0 0.00 0.00 0.00 26 1008.2
20260506101504 66 181 5.0 0.0 0.00 0.00 0.00 29 1008.2
20260506100119 66 180 4.0 0.0 0.00 0.00 0.00 32 1008.1
20260506094556 66 209 4.0 0.0 0.00 0.00 0.00 36 1008.3
20260506093054 66 196 5.0 0.0 0.00 0.00 0.00 41 1008.4
20260506091551 67 198 4.0 0.0 0.00 0.00 0.00 47 1008.5
20260506090049 67 162 4.0 0.0 0.00 0.00 0.00 51 1008.5
20260506084607 67 196 6.0 0.0 0.00 0.00 0.00 54 1008.7
20260506083044 68 195 5.0 0.0 0.00 0.00 0.00 57 1008.6
20260506081547 68 164 4.0 0.0 0.00 0.00 0.00 59 1008.7
20260506073043 69 173 5.0 0.0 0.00 0.00 0.00 62 1008.5
20260506071536 69 180 4.0 0.0 0.00 0.00 0.00 62 1008.7
20260506061525 70 176 4.0 0.0 0.00 0.00 0.00 60 1008.9
20260506044526 72 173 7.0 0.0 0.00 0.00 0.00 56 1009.5
20260506043009 73 205 6.0 0.0 0.00 0.00 0.00 55 1009.5
20260506041506 73 206 7.0 0.0 0.00 0.00 0.00 55 1009.4
20260506040006 73 157 7.0 0.0 0.00 0.00 0.00 55 1009.4
20260506034508 73 200 7.0 0.0 0.00 0.00 0.00 54 1009.4
20260506033007 73 209 7.0 0.0 0.00 0.00 0.00 54 1009.5
20260506031503 73 186 6.0 0.0 0.00 0.00 0.00 52 1009.3
20260506030003 73 215 5.0 0.0 0.00 0.00 0.00 51 1009.3
20260506024502 73 200 4.0 0.0 0.00 0.00 0.00 49 1009.4
20260506023002 74 202 4.0 0.0 0.00 0.00 0.00 48 1009.4
20260506021501 74 186 5.0 0.0 0.00 0.00 0.00 47 1009.4
20260506020100 75 159 6.0 0.0 0.00 0.00 0.00 46 1009.5
20260506014559 75 169 6.0 0.0 0.00 0.00 0.00 44 1009.3
20260506013059 75 213 5.0 0.0 0.00 0.00 0.00 44 1009.2
20260506011622 75 150 3.0 0.0 0.00 0.00 0.00 43 1009.0
20260506004625 76 217 5.0 0.0 0.00 0.00 0.00 40 1008.7
20260506003111 77 165 6.0 0.0 0.00 0.00 0.00 40 1008.5
20260506001558 77 196 4.0 0.0 0.00 0.00 0.00 38 1008.4
20260506000057 78 218 7.0 0.0 0.00 0.00 0.00 36 1008.2
20260505234627 79 109 6.0 0.0 0.00 0.00 0.00 35 1008.2
20260505233057 79 137 5.0 0.0 0.00 0.00 0.00 35 1008.1
20260505231556 79 261 5.0 0.0 0.00 0.00 0.00 34 1008.1
20260505230054 80 221 6.0 0.0 0.00 0.00 0.00 33 1008.0
20260505224554 80 207 7.0 0.0 0.00 0.00 0.00 33 1008.0
20260505223053 81 221 9.0 0.0 0.00 0.00 0.00 32 1008.0
20260505221553 81 227 6.0 0.0 0.00 0.00 0.00 33 1008.0
20260505214601 81 229 8.0 0.0 0.00 0.00 0.00 33 1007.9
20260505213100 81 207 9.0 0.0 0.00 0.00 0.00 33 1008.0
20260505211559 82 137 7.0 0.0 0.00 0.00 0.00 33 1007.8
20260505210050 82 173 7.0 0.0 0.00 0.00 0.00 35 1007.8
20260505204550 83 167 8.0 0.0 0.00 0.00 0.00 34 1007.9
20260505203050 83 236 8.0 0.0 0.00 0.00 0.00 35 1007.8
20260505201548 83 121 9.0 0.0 0.00 0.00 0.00 35 1007.6
20260505200046 83 192 9.0 0.0 0.00 0.00 0.00 36 1007.8
20260505194547 82 138 9.0 0.0 0.00 0.00 0.00 36 1008.2
20260505193048 83 88 8.0 0.0 0.00 0.00 0.00 36 1008.2
20260505191553 82 136 8.0 0.0 0.00 0.00 0.00 35 1008.5
20260505190040 82 165 6.0 0.0 0.00 0.00 0.00 38 1008.7
20260505184536 82 137 8.0 0.0 0.00 0.00 0.00 40 1008.8
20260505183034 82 218 6.0 0.0 0.00 0.00 0.00 40 1009.1
20260505181531 81 155 6.0 0.0 0.00 0.00 0.00 41 1009.2
20260505180043 81 167 7.0 0.0 0.00 0.00 0.00 41 1009.8
20260505174537 80 132 6.0 0.0 0.00 0.00 0.00 42 1009.7
20260505173025 80 132 6.0 0.0 0.00 0.00 0.00 41 1009.9
20260505171530 80 163 4.0 0.0 0.00 0.00 0.00 42 1009.9
20260505170026 79 206 5.0 0.0 0.00 0.00 0.00 40 1010.1
20260505164519 79 184 6.0 0.0 0.00 0.00 0.00 44 1010.4
20260505163017 78 150 4.0 0.0 0.00 0.00 0.00 47 1010.7
20260505161513 77 106 5.0 0.0 0.00 0.00 0.00 48 1010.9
20260505153005 75 184 4.0 0.0 0.00 0.00 0.00 52 1011.1
20260505151502 74 168 4.0 0.0 0.00 0.00 0.00 53 1011.2